{"data":{"norad_id":67714,"intl_designator":"2026-025X","name":"STARLINK-36702","alt_names":[],"object_type":"PAYLOAD","status":"ACTIVE","operator":null,"country":"US","launch_date":"2026-02-07","launch_site_code":"AFWTR","launch_vehicle":null,"mission":null,"orbit_class":"UNKNOWN","rcs_meters":null,"size_class":null,"mass_kg":null,"dimensions":null,"purposes":["comms"],"wikipedia_slug":null,"has_3d_model":false,"image_url":null,"decayed_at":null,"tle_current":{"epoch":"2026-05-25T01:23:42.908064Z","epoch_age_seconds":69751,"freshness":"FRESH","line1":"1 67714U 26025X   26145.05813551 -.00008591  00000+0 -26420-3 0  9997","line2":"2 67714  97.2852 256.6327 0001164  86.1901 273.9475 15.33430347 17714","mean_motion":15.33430347,"eccentricity":0.0001164,"inclination_deg":97.2852,"raan_deg":256.6327,"arg_perigee_deg":86.1901,"mean_anomaly_deg":273.9475,"bstar":-0.0002642,"rev_number":1771,"period_min":93.907101996332,"perigee_km":464.79016239699,"apogee_km":466.38338129108,"semimajor_km":6843.723771844,"source":"CELESTRAK","updated_at":"2026-05-25T13:38:21.683845Z"}}}